This is the latest recevied weather packets stored in our database for station/object E23JWE-1. If no packets are shown the sender has not sent any weather packets the latest 10 day(s).
| Time | Temp. | Humidity | Pressure | Rain* | Wind** | Luminosity | Snow |
|---|---|---|---|---|---|---|---|
| 1777958293 | 32.78° C | 93% | 1009 hPa | - | - | 42 W/m² | - |
| 1777956468 | 32.22° C | 95% | 1010 hPa | - | - | 40 W/m² | - |
| 1777954643 | 32.22° C | 97% | 1010 hPa | - | - | 37 W/m² | - |
| 1777952817 | 32.22° C | 97% | 1010 hPa | - | - | 37 W/m² | - |
| 1777950991 | 31.67° C | 99% | 1011 hPa | - | - | 24 W/m² | - |
| 1777949166 | 31.67° C | 99% | 1011 hPa | - | - | 26 W/m² | - |
| 1777947340 | 31.67° C | 99% | 1010 hPa | - | - | 30 W/m² | - |
| 1777945515 | 31.11° C | 99% | 1010 hPa | - | - | 21 W/m² | - |
| 1777943689 | 31.11° C | 99% | 1010 hPa | - | - | 16 W/m² | - |
| 1777941865 | 31.11° C | 99% | 1009 hPa | - | - | 12 W/m² | - |
| 1777940038 | 30.56° C | 99% | 1009 hPa | - | - | 9 W/m² | - |
| 1777938212 | 30.56° C | 99% | 1008 hPa | - | - | 3 W/m² | - |
| 1777936387 | 31.11° C | 99% | 1008 hPa | - | - | 0 W/m² | - |
| 1777934561 | 30.56° C | 99% | 1008 hPa | - | - | 0 W/m² | - |
| 1777932735 | 31.11° C | 99% | 1008 hPa | - | - | 0 W/m² | - |
| 1777930910 | 30.56° C | 99% | 1007 hPa | - | - | 0 W/m² | - |
| 1777929085 | 31.11° C | 99% | 1008 hPa | - | - | 0 W/m² | - |
| 1777927259 | 31.11° C | 99% | 1008 hPa | - | - | 0 W/m² | - |
| 1777925433 | 31.11° C | 99% | 1008 hPa | - | - | 0 W/m² | - |
| 1777923608 | 31.11° C | 99% | 1008 hPa | - | - | 0 W/m² | - |
| 1777921782 | 31.11° C | 99% | 1008 hPa | - | - | 0 W/m² | - |
| 1777919957 | 31.67° C | 99% | 1009 hPa | - | - | 0 W/m² | - |
| 1777918131 | 31.67° C | 98% | 1009 hPa | - | - | 0 W/m² | - |
| 1777916305 | 31.67° C | 97% | 1010 hPa | - | - | 0 W/m² | - |
| 1777914479 | 31.67° C | 96% | 1010 hPa | - | - | 0 W/m² | - |
* Rain since midnight (hover to see other rain measurements)
** Current wind speed in m/s (hover to see current wind gust speed)